Weather History for Keene, NH

Change the Weather History Date:

Wednesday, January 9, 2013

  Actual Average Record
Temperature  
Mean Temperature 27 °F -  
Max Temperature 42 °F 28 °F 57 °F (1978)
Min Temperature 12 °F 7 °F -17 °F (1968)
Degree Days  
Heating Degree Days 38    
Moisture  
Dew Point 20 °F    
Average Humidity 81    
Maximum Humidity 93    
Minimum Humidity 49    
Precipitation  
Precipitation 0.00 in - - ()
Sea Level Pressure  
Sea Level Pressure 30.20 in    
Wind  
Wind Speed 1 mph (SSW)    
Max Wind Speed 13 mph    
Max Gust Speed 21 mph    
Visibility 7 miles    
Events      
Averages and records for this station are not official NWS values.
T = Trace of Precipitation, MM = Missing Value Source: NWS Daily Summary

Daily Weather History Graph

Daily Weather History Graph

Search for Another Location

Airport:

Trip Planner

Search our weather history database for the weather conditions in past years. The results will help you decide how hot, cold, wet, or windy it might be!

Date:

Astronomy

Jan. 09, 2013 Rise Set
Actual Time 7:19 AM EST 4:33 PM EST
Civil Twilight 6:47 AM EST 5:05 PM EST
Nautical Twilight 6:12 AM EST 5:40 PM EST
Astronomical Twilight 5:38 AM EST 6:14 PM EST
Moon 4:55 AM EST (1/9) 2:32 PM EST (1/9)
Length of Visible Light 10h 17m
Length of Day
9h 14m
Waning Crescent, 6% of the Moon is Illuminated
Jan 9
Waning Crescent
Jan 11
New
Jan 18
First Quarter
Jan 26
Full
Feb 3
Last Quarter

Hourly Weather History & Observations

Time (EST) Temp. Windchill Dew Point Humidity Pressure Visibility Wind Dir Wind Speed Gust Speed Precip Events Conditions
12:15 AM 19.4 °F - 17.6 °F 93% 30.37 in 6.0 mi Calm Calm - N/A   Clear
12:35 AM 19.4 °F - 17.6 °F 93% 30.36 in 4.0 mi Calm Calm - N/A   Clear
1:15 AM 19.4 °F - 17.6 °F 93% 30.37 in 4.0 mi Calm Calm - N/A   Clear
1:35 AM 21.2 °F - 19.4 °F 93% 30.37 in 6.0 mi Calm Calm - N/A   Clear
1:55 AM 19.4 °F - 15.8 °F 86% 30.37 in 4.0 mi Calm Calm - N/A   Clear
2:15 AM 19.4 °F - 17.6 °F 93% 30.37 in 3.0 mi Calm Calm - N/A   Clear
2:35 AM 19.4 °F - 17.6 °F 93% 30.36 in 5.0 mi Calm Calm - N/A   Clear
2:55 AM 17.6 °F - 14.0 °F 86% 30.36 in 0.5 mi Calm Calm - N/A   Unknown
3:35 AM 17.6 °F - 14.0 °F 86% 30.35 in 3.0 mi Calm Calm - N/A   Clear
3:55 AM 17.6 °F - 15.8 °F 93% 30.35 in 3.0 mi Calm Calm - N/A   Clear
4:15 AM 17.6 °F - 14.0 °F 86% 30.35 in 2.5 mi Calm Calm - N/A   Clear
4:35 AM 15.8 °F - 10.4 °F 79% 30.36 in 0.8 mi Calm Calm - N/A   Unknown
4:55 AM 17.6 °F - 15.8 °F 93% 30.35 in 4.0 mi Calm Calm - N/A   Clear
5:15 AM 15.8 °F - 12.2 °F 86% 30.35 in 6.0 mi Calm Calm - N/A   Clear
5:55 AM 15.8 °F - 10.4 °F 79% 30.36 in 4.0 mi Calm Calm - N/A   Clear
6:15 AM 12.2 °F - 8.6 °F 85% 30.37 in 5.0 mi Calm Calm - N/A   Clear
6:35 AM 12.2 °F - 10.4 °F 92% 30.37 in 4.0 mi Calm Calm - N/A   Clear
7:15 AM 12.2 °F - 8.6 °F 85% 30.38 in 5.0 mi Calm Calm - N/A   Clear
7:35 AM 12.2 °F - 8.6 °F 85% 30.37 in 5.0 mi Calm Calm - N/A   Clear
8:15 AM 12.2 °F - 10.4 °F 92% 30.37 in 5.0 mi Calm Calm - N/A   Clear
8:35 AM 12.2 °F - 10.4 °F 92% 30.38 in 5.0 mi Calm Calm - N/A   Clear
8:55 AM 14.0 °F - 10.4 °F 86% 30.37 in 6.0 mi Calm Calm - N/A   Clear
9:15 AM 15.8 °F - 14.0 °F 93% 30.36 in 5.0 mi Calm Calm - N/A   Clear
9:35 AM 15.8 °F - 14.0 °F 93% 30.35 in 5.0 mi Calm Calm - N/A   Clear
9:55 AM 17.6 °F - 15.8 °F 93% 30.34 in 5.0 mi Calm Calm - N/A   Clear
10:35 AM 19.4 °F - 15.8 °F 86% 30.34 in 7.0 mi Calm Calm - N/A   Clear
10:55 AM 21.2 °F - 19.4 °F 93% 30.31 in 8.0 mi Calm Calm - N/A   Clear
11:15 AM 21.2 °F - 19.4 °F 93% 30.27 in 8.0 mi Calm Calm - N/A   Clear
11:35 AM 23.0 °F - 19.4 °F 86% 30.24 in 10.0 mi Calm Calm - N/A   Clear
11:55 AM 24.8 °F - 21.2 °F 86% 30.22 in 9.0 mi Calm Calm - N/A   Clear
12:15 PM 24.8 °F - 21.2 °F 86% 30.18 in 8.0 mi Calm Calm - N/A   Clear
12:55 PM 28.4 °F - 21.2 °F 74% 30.21 in 7.0 mi Calm Calm - N/A   Clear
1:15 PM 28.4 °F - 21.2 °F 74% 30.19 in 9.0 mi Calm Calm - N/A   Clear
1:35 PM 30.2 °F - 21.2 °F 69% 30.18 in 9.0 mi Calm Calm - N/A   Clear
1:55 PM 30.2 °F - 23.0 °F 75% 30.14 in 8.0 mi Calm Calm - N/A   Scattered Clouds
2:15 PM 30.2 °F - 23.0 °F 75% 30.12 in 9.0 mi Calm Calm - N/A   Mostly Cloudy
2:35 PM 32.0 °F - 23.0 °F 69% 30.12 in 9.0 mi Calm Calm - N/A   Overcast
3:15 PM 32.0 °F 28.7 °F 24.8 °F 75% 30.05 in 9.0 mi NE 3.5 mph - N/A   Overcast
3:35 PM 33.8 °F 26.4 °F 24.8 °F 70% 30.04 in 10.0 mi South 9.2 mph - N/A   Mostly Cloudy
3:55 PM 39.2 °F 33.0 °F 26.6 °F 61% 30.05 in 10.0 mi SSW 9.2 mph 18.4 mph N/A   Mostly Cloudy
4:15 PM 37.4 °F 33.8 °F 26.6 °F 65% 30.05 in 10.0 mi South 4.6 mph - N/A   Overcast
4:35 PM 37.4 °F 30.8 °F 28.4 °F 70% 30.02 in 10.0 mi South 9.2 mph - N/A   Overcast
4:55 PM 37.4 °F 32.8 °F 28.4 °F 70% 30.00 in 10.0 mi South 5.8 mph - N/A   Overcast
5:35 PM 33.8 °F 28.6 °F 24.8 °F 70% 30.01 in 10.0 mi West 5.8 mph - N/A   Scattered Clouds
6:15 PM 32.0 °F - 26.6 °F 80% 30.01 in 10.0 mi Calm Calm - N/A   Partly Cloudy
6:35 PM 30.2 °F - 24.8 °F 80% 30.02 in 9.0 mi Calm Calm - N/A   Clear
6:55 PM 30.2 °F 26.7 °F 26.6 °F 86% 30.01 in 8.0 mi SSW 3.5 mph - N/A   Clear
7:15 PM 28.4 °F - 24.8 °F 86% 30.01 in 6.0 mi Calm Calm - N/A   Clear
7:35 PM 30.2 °F - 26.6 °F 86% 30.02 in 7.0 mi Calm Calm - N/A   Clear
7:55 PM 28.4 °F 24.6 °F 23.0 °F 80% 30.01 in 5.0 mi South 3.5 mph - N/A   Partly Cloudy
8:35 PM 26.6 °F 21.2 °F 23.0 °F 86% 30.00 in 5.0 mi South 4.6 mph - N/A   Scattered Clouds
8:55 PM 30.2 °F 25.4 °F 26.6 °F 86% 30.00 in 7.0 mi South 4.6 mph - N/A   Scattered Clouds
9:15 PM 30.2 °F 24.3 °F 26.6 °F 86% 30.02 in 5.0 mi South 5.8 mph - N/A   Scattered Clouds
9:35 PM 30.2 °F 25.4 °F 24.8 °F 80% 30.03 in 6.0 mi South 4.6 mph - N/A   Mostly Cloudy
9:55 PM 30.2 °F 24.3 °F 26.6 °F 86% 30.04 in 7.0 mi WSW 5.8 mph - N/A   Overcast
10:15 PM 30.2 °F 23.4 °F 24.8 °F 80% 30.05 in 10.0 mi SW 6.9 mph - N/A   Overcast
10:35 PM 39.2 °F 34.2 °F 26.6 °F 61% 30.05 in 10.0 mi WSW 6.9 mph - N/A   Overcast
11:15 PM 42.8 °F 36.2 °F 24.8 °F 49% 30.06 in 10.0 mi West 12.7 mph 19.6 mph N/A   Overcast
11:35 PM 42.8 °F 39.3 °F 24.8 °F 49% 30.06 in 10.0 mi West 5.8 mph - N/A   Overcast
11:55 PM 42.8 °F 36.6 °F 24.8 °F 49% 30.05 in 10.0 mi West 11.5 mph 20.7 mph N/A   Overcast